STARLINK-32708 (62495 NORAD) Tracking and Keplerian Element Data

This shows tracking and keplerian element data for the satellite.

Feedback or suggestion? Click here.




ElementValue
Catalog62495
NameSTARLINK-32708
Epoch Orbit558
Epoch Day35.33851128
Epoch Year2025
RAAN22.5686
Inclination43.0008
Eccentricity7.34E-05
Argument of Perigee235.7812
Mean Anonmoly124.2979
Mean Motion15.50284763
Decay Rate-0.00034385
L11 62495U 25003J 25035.33851128 -.00034385 00000+0 -58905-3 0 9996
L22 62495 43.0008 22.5686 0000734 235.7812 124.2979 15.50284763 5587



Live tracking and technical data element details for STARLINK-32708 (NORAD 62495). STARLINK-32708 can be tracked NOW for your location showing map with azimuth and elevation plus other details from your city location.







IsCatalogInMostPopularTable: catalog: 62495, numindb: 15
Update: records affected: 1



GetName: 62495 STARLINK-32708

Hit Count: updated at: Sat, 24 May 2025 15:58:49 GMT